Darbhanga Airport

Jump to: basic info | weather | runways | comments

Related pages: nearby airports | nearby navaids | notams | map

Basic information (top)

Codes: VE89
Location: lon 26.192801, lat 85.916901, elev 156 ft / 48 m msl
Status: small_airport

Weather (top)

Current conditions for Lok Nayak Jayaprakash Airport 58nm (107km) SW (rec'd 2014/07/30 15:50Z):

VEPT 301550Z 11004KT 3000 HZ FEW018 SCT100 29/27 Q1000 NOSIG

Airport forecast for Lok Nayak Jayaprakash Airport 58nm (107km) SW (rec'd 2014/07/30 12:15Z):

TAF VEPT 300900Z 3012/3118 09006KT 5000 HZ/-TSRA SCT018 FEW030CB BKN090 
      BECMG 3018/3020 00000KT 4000 HZ/-RA 
      BECMG 3103/3105 09008KT 3500 HZ 
      BECMG 3110/3112 5000 HZ/-RA 
      BECMG 3116/3118 4000 HZ/-TSRA

Runways (top)

10/28: 9,000 x 150 ft (2,743 x 46 m) — paved — not lighted

Latest comments (top)

airline service: Please please start airline services ... [read]

pls: pls do start darbhanga airport [read]

flights to darbhanga: it will be honour to open darbhanga ... [read]

Darbhanga Airport: We would request Bihar and Central ... [read]

Airport darbhanga: I am Chandeshwar Mandal and I request ... [read]

See all 19 comments for Darbhanga Airport

More... (top)

See also NOTAMs and nearby airports and navaids, or visit the Darbhanga Airport page at the main OurAirports website..